Dewpoint
63 61 54 56 54 49 43 46 37 43 39 27 30 30 28 27 29 24 27 24 34 39 42 42 41 45 47 46 45 51 52 50 50 49 49 59 62 62 60 62 65 67 67 68 69 69 70 71 71 71 71 70 70 70 70 69 68 67 67 66 66 65 65 66 66 65 65 65 65 65 65 65 65 65 65 66 67 67 67 67 66 66 66 67 67 67 67 66 66 66 66 66 65 65 65 65 64
55 50 47 49 48 51 44 38 40 31 31 26 24 25 30 24 25 28 22 39 40 41 43 43 46 46 47 46 43 49 54 55 56 57 58 60 59 59 60 61 64 65 66 67 68 68 69 70 70 70 70 71 70 70 70 69 68 68 68 67 66 66 66 66 66 66 66 66 66 66 66 66 65 65 65 65 66 68 67 67 67 67 67 66 66 66 67 66 66 66 66 65 66 65 64 64 64
51 49 45 46 43 46 39 37 33 27 28 27 25 25 27 21 27 41 40 41 42 45 46 47 46 46 45 42 44 49 52 56 56 57 58 60 57 58 61 61 61 64 65 66 68 68 68 69 70 70 70 70 70 70 69 69 69 68 68 67 67 67 67 67 67 67 66 66 66 66 65 65 65 65 65 65 66 66 66 66 67 67 66 66 66 67 68 67 66 65 66 66 66 65 65 64 64
53 49 46 47 45 46 38 33 35 26 26 25 23 28 25 29 40 42 43 43 43 45 46 44 44 50 47 45 44 55 55 55 57 58 57 58 57 58 58 60 62 60 63 65 66 67 68 69 70 70 71 70 70 69 69 69 68 67 66 65 67 68 68 68 67 66 65 65 66 66 65 65 65 65 65 65 65 65 67 67 67 67 67 69 69 69 69 68 67 67 67 66 66 65 64 64 64
49 52 49 45 48 44 43 37 29 29 26 22 22 26 23 37 41 43 44 44 45 44 45 44 45 49 49 49 51 50 54 56 56 57 57 57 57 57 59 61 60 59 60 63 65 67 68 69 70 71 71 71 70 69 68 68 67 67 66 65 66 66 67 67 65 64 63 65 64 64 64 63 63 64 64 64 64 63 64 66 66 66 66 67 67 67 67 67 67 67 66 66 65 65 64 64 64
48 47 55 46 40 41 36 30 26 21 27 23 19 21 18 32 41 42 42 44 45 46 46 43 44 45 44 54 56 54 57 55 56 57 59 57 57 58 59 64 58 59 60 61 66 66 69 69 70 70 70 70 70 68 68 67 67 67 65 64 66 67 66 65 64 63 61 61 62 65 64 65 65 65 65 64 64 64 64 66 67 67 67 66 66 66 66 66 65 65 65 66 65 65 64 64 64
49 45 47 51 45 41 38 30 27 28 23 19 19 19 19 36 41 42 43 42 45 44 46 45 43 44 51 52 55 56 59 58 55 56 59 58 58 58 59 59 59 59 59 62 67 68 69 69 70 70 70 70 69 68 67 67 67 66 65 64 64 65 64 64 62 63 65 66 67 66 67 66 66 66 66 66 66 65 65 66 68 68 68 67 66 66 66 66 66 66 66 66 66 65 64 64 64
51 49 47 40 41 36 33 29 26 27 26 20 19 21 23 38 39 40 38 38 40 40 44 45 44 44 49 50 53 56 59 59 60 59 59 58 58 58 61 58 59 59 59 65 67 69 70 69 70 70 70 70 69 68 68 67 67 65 65 64 64 65 65 65 67 68 68 68 67 67 67 67 66 66 65 65 64 64 65 66 66 67 67 67 67 66 66 66 66 66 65 66 66 66 65 64 64
48 45 51 45 38 41 33 30 27 22 24 23 19 26 36 34 36 37 34 37 36 40 40 40 44 38 47 51 55 57 59 59 59 60 59 57 57 59 58 58 58 60 64 67 68 68 69 68 70 70 70 70 69 68 68 67 66 65 65 64 64 65 68 68 68 67 67 66 66 66 65 66 65 64 64 64 64 64 64 65 65 66 66 66 66 67 66 66 66 66 66 66 65 65 65 65 65
43 40 39 42 42 33 33 30 25 25 23 22 21 20 27 32 35 36 36 30 34 36 39 42 41 37 41 52 55 56 57 60 59 58 58 57 58 58 58 59 61 61 64 65 66 68 69 70 68 69 70 70 69 69 68 67 66 65 64 64 64 66 67 67 67 66 65 65 65 65 64 64 63 63 63 63 63 63 63 63 64 65 65 65 65 65 66 65 65 65 65 66 66 66 65 65 65
39 43 49 43 36 32 34 31 23 26 22 23 20 22 25 28 34 35 35 33 32 39 43 40 39 34 33 55 56 58 59 60 58 57 57 57 60 58 58 59 61 61 63 64 66 68 69 69 69 68 69 69 69 69 68 67 66 65 64 67 67 67 67 67 66 66 65 65 64 64 63 62 62 63 64 65 65 65 65 65 65 65 65 65 65 65 65 65 65 65 66 66 65 66 65 65 65
38 38 45 37 32 32 33 30 25 22 22 23 22 24 28 31 37 36 34 32 29 41 42 38 38 35 34 51 56 57 60 60 58 58 59 60 58 59 58 58 61 61 65 66 66 67 68 69 68 69 66 66 67 68 67 67 68 68 68 67 67 67 67 68 66 65 64 64 64 64 63 63 64 65 64 64 64 64 64 64 64 63 63 63 64 64 64 64 65 65 65 65 65 65 65 64 64
42 45 37 33 30 30 32 31 31 26 26 30 27 29 28 31 34 34 31 31 29 33 37 32 39 30 33 46 57 58 58 60 58 59 60 58 59 59 59 58 59 61 65 66 65 67 68 68 68 68 66 64 64 65 66 67 69 69 69 69 68 68 68 68 67 66 65 64 64 64 66 66 66 66 66 65 65 64 64 64 64 64 63 63 63 64 65 65 65 65 65 65 64 64 64 63 63
47 47 42 35 34 31 31 30 31 29 25 31 30 30 31 32 35 34 31 28 28 30 37 32 31 32 38 56 56 56 58 60 58 59 59 59 59 58 59 59 61 60 63 63 65 66 66 67 68 67 66 66 65 64 64 67 68 68 68 68 68 68 68 68 68 67 66 66 66 67 66 66 66 66 66 66 66 66 64 63 63 63 63 64 63 64 64 64 64 64 64 64 64 63 63 62 63
45 46 39 40 32 32 32 32 32 28 29 28 28 34 33 35 35 34 33 33 41 45 44 42 49 35 36 36 55 55 58 59 59 60 60 59 58 58 59 60 60 61 61 60 62 63 65 67 67 66 66 65 64 64 65 65 65 67 67 67 68 68 68 68 68 67 67 67 66 65 65 65 64 65 65 65 64 64 64 65 64 63 63 64 64 64 63 63 63 63 63 63 63 63 63 62 62
47 40 39 39 31 32 34 29 32 31 27 25 29 33 34 33 36 34 33 35 41 45 39 41 45 42 41 50 52 57 58 59 59 60 60 59 59 59 59 58 58 60 61 60 60 60 63 66 66 66 65 65 64 64 65 65 64 64 66 66 66 67 67 67 66 65 65 64 63 63 63 62 62 61 61 61 62 63 63 63 65 64 64 63 64 64 63 63 63 63 62 63 63 62 62 62 62
46 46 37 33 29 32 34 31 30 25 25 29 31 33 33 31 35 35 34 36 35 41 38 44 40 46 51 56 58 58 59 59 60 61 60 58 58 57 57 57 58 58 61 59 59 59 60 66 66 66 65 64 64 64 65 66 64 64 63 64 64 65 65 65 64 62 61 61 61 61 62 63 62 62 62 62 61 61 60 61 64 65 64 64 64 64 63 63 63 63 63 62 62 62 63 63 62
45 40 35 33 31 31 28 25 26 28 24 22 22 25 29 30 33 35 35 35 35 38 37 48 46 45 48 57 58 59 59 60 60 60 59 57 57 56 56 56 57 57 58 58 58 58 59 61 63 64 65 64 64 64 65 65 65 64 65 64 63 63 62 62 63 64 64 62 60 61 62 62 62 62 61 63 62 62 61 59 61 63 63 63 63 63 64 63 63 63 62 62 62 62 61 58 59
50 38 35 30 35 28 24 23 22 23 24 22 22 23 25 28 29 34 32 31 31 34 38 45 45 48 47 54 59 59 60 60 60 60 59 57 56 54 55 56 56 57 58 57 57 57 58 60 60 62 64 64 64 65 65 64 64 64 64 64 64 62 63 64 64 64 63 63 62 62 63 59 60 62 62 62 62 59 60 59 60 61 62 61 62 61 62 63 62 61 62 62 62 62 59 59 60
36 36 34 32 31 23 23 23 23 23 25 22 22 23 24 25 28 34 33 28 31 30 32 37 42 45 46 53 58 59 59 60 60 59 58 57 56 54 54 55 55 56 57 57 57 58 58 59 59 59 60 62 64 64 64 63 62 62 62 63 64 63 63 63 62 63 62 62 62 62 59 59 61 60 61 62 61 59 58 58 59 60 60 59 59 60 61 62 63 62 61 63 61 59 59 58 57
45 37 34 34 24 25 23 23 23 23 23 24 24 25 25 25 25 27 29 28 26 27 29 32 39 42 46 53 57 59 59 59 60 59 59 58 57 54 54 55 55 55 56 57 57 57 58 58 58 59 60 61 61 61 60 61 60 59 59 60 60 60 62 61 60 60 61 61 61 59 59 59 60 60 60 59 59 60 59 59 58 58 58 58 56 58 60 60 58 59 59 58 57 59 57 58 59
48 40 33 28 28 25 24 25 29 24 23 27 24 22 22 23 23 23 23 24 25 27 29 27 27 40 47 50 58 58 58 59 59 59 59 58 57 54 54 55 55 56 56 56 57 57 58 58 58 59 59 60 60 59 58 58 60 59 59 60 59 59 59 59 60 60 60 60 60 60 59 59 59 59 59 59 60 61 61 60 60 60 60 60 58 60 58 60 58 60 59 59 58 58 58 59 59
33 39 39 27 26 23 26 29 32 27 28 26 25 28 27 24 23 24 23 23 25 30 28 29 30 43 48 49 58 57 57 58 59 59 59 58 58 56 54 55 55 56 57 56 57 57 57 57 58 59 59 59 59 58 59 60 59 60 59 60 59 59 59 59 59 59 59 59 59 60 59 58 58 59 59 59 58 58 58 59 58 57 58 58 57 57 57 57 57 58 58 58 58 58 58 58 59
35 28 31 31 28 26 30 30 32 31 32 31 32 33 27 25 22 26 25 24 24 29 30 31 32 44 49 49 58 57 57 57 58 59 59 58 58 57 57 55 55 56 57 56 57 57 58 58 58 58 59 59 59 59 59 59 59 60 58 59 59 59 58 57 57 58 60 59 60 59 58 58 58 58 58 57 58 57 58 57 57 56 57 58 57 59 58 58 58 58 58 58 59 58 58 59 59
34 35 25 26 30 33 33 32 33 35 32 33 33 32 33 32 25 23 22 23 24 27 29 31 35 44 50 48 54 56 57 58 58 59 59 59 59 59 59 58 56 56 56 57 57 57 58 58 58 57 58 59 59 58 58 59 57 60 59 59 58 59 58 56 58 58 59 59 60 59 58 58 57 57 57 57 57 56 58 57 57 57 58 58 57 57 58 58 58 58 58 58 58 58 57 58 58
38 35 28 29 31 36 36 35 35 36 36 33 33 33 33 26 25 22 22 23 24 28 30 32 34 43 49 48 52 55 55 57 57 58 58 59 60 59 59 58 57 55 57 57 57 58 57 58 58 58 58 58 58 58 58 58 58 60 60 58 56 57 58 56 59 59 57 58 59 59 58 57 56 57 57 57 56 58 58 58 58 58 58 58 58 58 58 58 58 58 58 58 58 57 57 57 58
40 42 38 36 36 38 38 36 36 37 38 36 34 33 32 24 26 25 30 32 25 34 32 33 34 40 48 49 51 53 54 55 56 57 57 58 59 59 59 59 58 57 57 57 58 58 58 58 58 58 58 58 59 58 59 58 59 59 60 59 58 57 57 58 59 58 57 57 58 59 59 59 58 58 57 58 57 58 58 57 58 58 58 58 58 58 58 58 58 58 58 57 57 57 57 57 56
40 39 40 40 40 39 39 38 38 37 37 36 33 31 32 32 26 24 25 33 36 32 29 34 35 41 45 47 50 52 53 54 56 56 56 57 57 58 58 59 58 58 58 58 58 58 57 57 57 58 58 59 59 59 59 58 59 59 59 58 59 58 57 59 59 58 57 57 58 60 59 60 59 60 58 58 58 58 58 58 58 58 58 58 58 58 59 59 58 57 57 58 58 57 57 56 56
40 40 38 39 41 39 39 38 39 39 38 34 33 34 33 33 32 30 26 29 26 28 28 35 36 38 43 44 49 50 51 53 55 56 56 56 57 58 58 59 59 59 59 59 59 59 57 57 57 57 58 59 59 59 59 59 59 59 60 59 60 59 58 59 59 58 59 59 60 61 61 60 60 59 60 59 58 58 58 58 58 58 58 58 59 59 58 58 57 58 58 59 58 58 57 57 58
39 39 38 37 38 38 39 40 40 35 35 37 35 32 32 32 32 32 28 28 28 28 27 35 38 37 40 44 49 51 52 53 55 56 56 56 56 57 58 59 59 59 60 60 60 59 58 58 58 58 58 59 59 59 59 59 59 59 60 59 59 59 59 58 58 58 59 59 61 61 61 61 59 59 60 59 58 58 58 58 57 58 58 58 57 59 58 58 58 57 56 56 56 55 56 55 55
38 38 38 37 36 36 39 40 39 38 31 34 35 32 33 33 32 29 32 31 29 28 27 34 37 36 37 45 49 51 51 53 54 55 56 56 56 57 58 58 59 60 60 60 60 60 59 59 58 57 58 59 59 59 59 59 59 59 59 59 59 60 60 59 59 58 59 59 61 61 61 61 60 60 60 60 59 59 58 58 57 58 59 59 59 59 59 57 57 57 57 56 56 56 55 55 55
38 36 35 37 36 37 38 39 36 33 23 29 32 32 32 33 33 31 32 33 30 27 27 32 36 36 37 45 48 50 51 52 54 55 56 56 56 56 58 57 59 59 60 60 60 60 59 60 59 58 58 59 59 59 59 59 59 59 59 58 58 60 59 58 58 58 58 58 60 61 61 61 60 60 60 61 59 59 58 58 59 58 59 58 58 58 57 55 56 57 57 56 55 55 55 55 56
38 36 38 36 36 36 37 33 32 33 33 22 29 31 33 27 30 20 26 31 32 31 30 27 34 37 39 44 48 49 50 52 54 54 56 56 56 56 57 57 58 59 60 60 60 60 59 60 60 59 58 59 59 59 59 59 58 59 58 58 58 60 58 57 56 56 56 57 58 60 61 61 61 61 61 60 60 60 59 58 58 59 59 58 58 58 57 57 56 57 56 56 56 55 55 56 55
38 39 37 40 37 37 36 29 32 37 31 22 22 27 28 30 26 16 22 26 27 26 25 24 26 36 39 43 47 48 49 51 53 54 55 56 56 56 57 56 58 59 59 59 60 60 60 60 61 60 60 59 59 59 59 60 59 59 58 57 56 59 58 56 56 55 55 56 56 58 60 61 61 61 61 61 60 60 59 59 58 59 59 59 58 57 56 57 58 57 56 57 57 56 56 55 55
38 38 38 38 38 38 37 31 27 27 28 30 29 23 24 27 29 29 29 22 22 23 24 23 22 33 38 40 43 46 47 49 52 54 55 55 56 57 57 57 57 58 59 59 59 59 60 61 61 61 61 61 60 59 59 60 60 59 59 57 57 58 58 57 58 57 57 55 56 59 61 61 60 62 62 61 61 60 59 59 58 59 59 59 58 56 56 57 58 57 57 57 58 58 57 56 56
38 39 38 38 37 37 37 32 24 29 26 26 28 29 28 27 26 27 27 27 24 23 23 23 23 22 36 40 42 44 47 47 52 54 55 55 56 57 57 57 58 58 58 59 59 59 60 60 62 61 61 62 61 61 60 60 60 59 58 58 58 58 59 58 60 60 59 57 57 59 61 61 61 61 62 62 61 60 59 59 59 59 59 59 58 57 56 56 58 57 57 58 57 57 56 55 56
39 40 39 37 37 37 37 34 27 27 31 30 30 31 31 31 31 32 30 25 26 26 24 23 23 23 25 37 41 42 45 47 51 55 55 56 57 57 57 57 58 58 58 58 58 59 59 59 62 62 62 62 62 61 61 60 59 59 59 58 58 59 60 61 61 61 60 60 59 60 61 61 61 61 61 61 61 59 59 59 59 59 59 59 59 58 57 59 59 58 58 57 56 56 56 56 56
40 43 40 38 39 37 37 35 31 32 35 36 36 36 36 36 36 35 32 30 26 23 24 23 22 23 26 30 37 41 41 47 52 54 55 56 56 57 57 57 57 57 58 58 57 58 58 59 60 62 62 62 62 62 62 61 60 59 59 59 59 60 60 60 61 61 62 61 61 61 61 61 61 61 60 61 60 60 59 59 59 59 59 59 59 58 59 58 59 57 56 56 56 55 56 56 56
41 43 41 40 38 39 36 32 32 32 36 34 35 35 35 35 36 35 35 33 29 23 24 23 22 23 25 28 31 37 41 43 48 51 55 55 56 57 57 57 58 58 58 58 58 58 58 59 59 60 62 62 62 62 62 62 61 61 60 60 60 60 61 61 61 62 62 62 62 61 61 62 61 61 61 61 60 60 59 58 58 59 59 59 58 58 59 59 59 58 57 55 55 57 58 57 56
40 42 41 39 40 38 36 32 32 31 33 33 34 32 31 31 31 33 35 33 31 27 24 24 25 23 23 25 29 34 40 43 46 50 54 55 56 57 57 57 58 58 58 58 58 58 58 58 59 60 61 62 62 62 61 62 62 62 62 61 61 61 61 61 62 62 62 62 61 62 62 62 62 62 61 61 61 61 60 59 58 58 59 59 59 58 57 58 59 59 58 57 56 55 57 56 55
42 42 41 39 39 38 36 30 31 29 30 32 30 29 28 28 29 30 31 33 33 32 28 24 27 30 28 32 32 34 36 42 46 49 53 55 56 56 57 57 58 58 58 58 58 58 58 58 59 59 60 61 61 61 62 62 62 62 62 61 62 61 61 62 61 61 62 61 61 62 62 62 62 62 62 62 61 61 60 60 59 59 59 59 60 59 58 59 59 59 58 58 58 56 56 54 54
41 43 42 40 38 37 37 27 29 33 34 28 27 27 30 30 28 29 30 31 31 33 31 27 25 25 27 26 30 35 38 41 44 48 53 55 56 56 57 57 57 58 58 58 58 58 58 58 59 59 60 60 61 61 62 62 62 62 62 62 61 61 61 61 61 61 61 61 61 62 62 62 62 62 62 62 61 60 61 61 60 60 59 59 59 59 59 59 59 59 59 58 58 58 55 55 52
40 41 42 40 38 38 38 37 36 31 29 25 27 28 26 29 28 29 30 31 31 32 33 32 30 26 25 26 27 29 34 38 43 45 52 54 55 56 57 57 58 57 58 58 58 58 58 59 59 59 60 60 61 61 62 61 62 62 62 62 61 61 61 61 62 62 62 61 62 61 61 62 62 62 62 62 62 61 61 61 61 60 60 60 60 60 59 59 59 59 59 58 58 58 54 51 52
39 43 41 40 39 40 40 39 37 34 36 36 26 29 25 27 28 29 29 29 29 31 33 34 33 32 26 24 26 27 30 33 38 40 47 52 53 56 57 57 58 58 58 58 58 58 58 58 59 59 60 59 61 61 62 62 62 62 62 61 61 61 61 61 62 62 62 61 61 62 62 62 63 62 61 61 61 61 61 61 61 61 60 60 60 60 59 59 59 58 59 59 58 56 55 52 50
40 42 40 39 39 39 40 39 38 35 33 30 31 32 25 25 28 28 28 28 28 29 29 34 35 35 31 26 26 27 28 32 34 37 36 47 51 53 55 56 57 57 57 57 57 58 58 59 59 59 60 60 60 61 61 62 61 62 62 61 61 61 61 61 61 61 61 61 61 62 62 62 62 62 62 61 61 61 60 61 61 61 60 60 60 59 59 59 59 58 58 58 56 55 55 54 51
44 43 42 41 42 41 40 38 37 32 31 31 32 33 28 29 31 30 28 27 27 28 29 29 33 35 31 26 26 27 28 30 33 34 35 36 49 51 53 54 56 57 57 57 57 58 58 58 58 59 59 60 60 61 61 62 62 61 62 61 61 61 60 61 60 60 60 61 60 61 61 61 62 62 62 61 61 61 61 61 61 61 60 60 58 59 59 58 58 59 59 58 56 55 54 53 51
43 42 41 40 41 37 35 36 31 32 31 32 33 34 33 30 31 30 30 29 27 28 28 29 29 32 27 27 26 29 28 29 32 32 34 35 38 49 51 51 53 55 57 57 57 58 58 58 58 58 59 60 60 61 61 61 62 61 61 61 61 60 60 60 60 60 60 60 60 60 61 61 61 61 62 61 61 61 62 61 61 61 60 59 59 59 59 58 58 58 58 57 56 55 51 50 49
41 40 37 35 33 33 33 31 33 31 30 29 33 33 33 30 28 32 30 31 28 27 27 27 28 28 31 28 27 27 28 29 31 32 32 35 36 38 46 49 50 53 56 56 57 58 58 58 59 58 58 59 59 60 61 61 62 61 61 61 60 60 61 60 60 60 60 60 60 60 61 61 61 61 62 61 61 61 61 61 60 61 60 59 60 60 59 58 57 57 57 56 55 54 51 50 49
40 38 35 33 30 30 30 29 28 30 30 20 22 33 30 31 31 31 31 30 29 27 26 26 27 27 30 32 28 28 30 30 31 32 34 35 37 37 39 44 46 50 54 55 56 57 58 58 59 58 58 59 59 60 60 61 61 61 60 60 60 60 60 60 60 60 60 60 60 60 60 60 61 61 61 61 60 60 60 61 60 60 60 59 59 59 58 57 56 56 55 55 54 53 50 50 49
38 37 34 32 29 29 28 29 29 29 30 24 25 29 26 27 27 31 32 32 31 30 28 30 28 29 30 33 40 34 35 33 32 33 34 36 37 39 39 40 42 46 50 53 55 56 57 58 58 59 58 59 59 60 60 60 60 61 61 60 60 59 60 60 60 60 60 60 60 60 60 60 60 61 60 60 60 60 60 60 60 59 59 59 59 58 57 55 55 54 54 54 53 52 49 48 47
37 38 36 33 31 29 27 28 26 27 26 24 29 28 28 25 29 23 20 22 26 28 27 31 32 31 31 32 33 30 29 32 36 36 37 38 40 40 40 41 40 41 44 50 52 54 56 57 58 58 58 58 59 59 59 60 60 60 60 60 59 59 60 60 60 60 60 60 60 60 60 60 60 60 60 60 59 60 59 59 59 59 58 58 57 57 55 55 54 53 52 51 50 49 48 48 46
38 38 38 35 32 31 29 27 27 26 24 21 24 27 27 28 26 28 24 23 23 20 21 23 23 23 27 29 28 29 31 32 35 34 35 35 37 37 38 39 42 40 40 43 48 51 53 55 56 57 58 58 58 58 59 59 60 60 60 60 59 59 58 59 59 59 59 60 60 60 60 61 60 60 60 59 59 59 59 58 57 57 57 56 56 55 55 54 53 52 50 49 49 48 48 46 45
34 36 34 35 36 33 28 27 26 26 25 25 24 24 26 26 27 27 27 27 25 21 20 19 20 23 26 27 28 27 32 32 35 36 36 36 36 36 36 36 38 41 41 40 42 46 49 51 53 54 55 56 57 58 58 59 59 59 60 60 60 59 58 58 59 59 59 60 60 61 61 61 60 60 59 59 58 58 58 58 57 56 55 55 54 54 53 53 52 50 49 49 48 46 45 44 43
34 34 35 37 39 37 31 29 26 24 24 24 24 24 23 24 25 28 27 27 27 22 19 18 19 23 23 27 29 32 35 36 35 34 34 35 37 37 36 36 35 36 38 39 39 41 45 47 49 50 52 53 55 56 57 58 58 58 59 59 59 59 59 58 59 59 59 59 60 60 60 60 61 60 59 59 58 57 57 54 56 55 54 54 53 53 52 52 51 49 49 48 46 44 43 41 41
34 34 38 33 31 31 31 28 26 24 24 24 24 24 25 25 25 21 22 26 26 26 21 18 18 20 22 25 29 32 35 39 38 36 36 37 37 39 40 40 41 41 41 41 42 42 45 46 47 48 49 51 52 54 55 57 57 58 58 58 58 58 58 58 59 59 59 59 60 60 60 60 60 60 59 58 58 57 55 54 54 53 53 53 52 51 50 50 48 46 45 44 43 42 40 39 38
38 37 37 37 34 32 30 30 29 27 25 22 24 25 25 28 26 24 23 23 26 21 24 19 17 17 20 23 33 36 34 36 40 40 40 39 41 43 43 43 43 43 43 43 44 44 44 46 47 48 49 49 51 53 55 56 56 57 57 56 57 58 58 58 58 59 59 59 59 59 60 59 60 59 59 58 58 56 55 53 52 52 52 52 51 49 48 47 45 44 42 41 41 38 36 35 34
32 34 33 33 32 33 31 31 29 26 24 24 22 21 24 28 26 25 24 24 23 23 25 28 21 20 28 30 33 36 36 36 39 39 39 41 41 41 42 42 43 43 42 43 44 44 45 45 45 47 48 49 51 52 54 55 55 56 55 55 56 56 56 57 56 58 58 58 59 58 59 60 58 58 58 57 56 55 54 53 53 52 51 51 49 48 47 45 42 41 40 39 37 35 34 33 33
33 34 33 33 32 29 29 29 32 30 28 26 22 22 24 24 25 25 25 25 25 29 28 31 28 22 26 35 35 36 37 35 36 37 39 39 39 40 42 41 41 41 42 42 43 43 44 44 44 45 47 48 49 50 51 52 53 53 52 53 54 54 54 56 56 56 57 57 58 58 58 57 57 56 56 56 55 54 53 53 52 51 51 50 49 48 46 43 40 38 37 37 34 33 32 32 32